Location: Burjasot
(39.5167°N, 0.4167°W)
Time: 16:26:38
(UTC+02:00)

ISS - Pass Details

Date: 27 May 2019
Orbit: 407 x 419 km, 51.6° (Epoch: 26 June)

Event Time Altitude Azimuth Distance (km) Brightness Sun altitude
Rises 23:17:08 0° 313° (NW) 2,358 1.7 -18.4°
Reaches altitude 10° 23:20:18 10° 345° (NNW) 1,497 0.0 -18.8°
Maximum altitude 23:21:45 12° 11° (N) 1,369 -0.6 -18.9°
Drops below altitude 10° 23:23:12 10° 37° (NE) 1,499 -0.8 -19.1°
Enters shadow 23:24:50 - 57° (ENE) 1,881 -0.5 -19.3°
